Other Surface Observations
Issued by NWS

Home | Current Version | Previous Version | Text Only | Print | Product List | Glossary On
Versions: 1 2 3 4 5 6 7 8 9 10 11 12 13 14 15 16 17 18 19 20 21 22 23 24 25 26 27 28 29 30 31 32 33 34 35 36 37 38 39 40 41 42 43 44 45 46 47 48 49 50
667
SXUS52 KTAE 201518
OSOTAE
OSOTAE
North Florida/South Alabama/Southwest Georgia Weather Roundup
National Weather Service Tallahassee Florida
1000 AM EST SAT JAN 20 2018

Note: "fair" indicates few or no clouds below 12,000 feet with no
significant weather and/or obstructions to visibility.

!FLZ017-115-028-034-025-201600
...North Florida...

CITY           SKY/WX    TMP DP  RH WIND       PRES   REMARKS
TALLAHASSEE    PTSUNNY   47  28  47 CALM      30.35R HAZE
APALACHICOLA   FAIR      51  30  44 NE6       30.34R
PERRY          FAIR      51  23  33 CALM      30.36R
CROSS CITY     FAIR      51  28  41 NE6       30.38R
JACKSONVILLE   FAIR      52  30  43 CALM      30.34R
$$

!FLZ112-006-005-002-011-201600
...Florida Panhandle...

CITY           SKY/WX    TMP DP  RH WIND       PRES   REMARKS
MARIANNA       FAIR      46  28  49 E3        30.35R
BONIFAY        NOT AVBL
PANAMA CITY NW FAIR      48  28  46 NE7       30.34R WCI  45
TYNDALL AFB    FAIR      49  26  41 E6        30.34R
TYND DRONE APT FAIR      49  26  39 E5        30.35R
DE FUNIAK SPR  FAIR      45  19  34 E7        30.34R WCI  42
EGLIN AFB      PTSUNNY   47  22  36 E3        30.32R
DESTIN         FAIR      54  28  36 NE5       30.33R
HURLBURT       FAIR      51  23  32 E7        30.31R
CRESTVIEW      FAIR      44  25  47 E3        30.34S
PENSACOLA      FAIR      51  22  31 E3        30.32R
$$

!ALZ063-066-201600
...South Alabama...

CITY           SKY/WX    TMP DP  RH WIND       PRES   REMARKS
DOTHAN         FAIR      50  22  33 E3        30.36R
OZARK CAIRNS   FAIR      47  17  30 E5        30.33R
FT RUCKER HELI FAIR      46  27  46 CALM      30.33R
RUCKER HELI 3    N/A     47  20  33 E3        30.33R
RUCKER HELI 2  FAIR      45  22  41 E5        30.33R WCI  42
FLORALA APT    FAIR      47  20  34 E5        30.35R WCI  45
ANDALUSIA      FAIR      50  22  33 VRB3      30.33R
TROY           CLOUDY    42  29  59 CALM      30.33R
EUFALA         FAIR      43  31  62 SE3       30.33R
MOBILE         PTSUNNY   52  32  46 E7        30.31R
$$

!GAZ120>161-201600
...Southwest and South Central Georgia...

CITY           SKY/WX    TMP DP  RH WIND       PRES   REMARKS
THOMASVILLE    FAIR      48  28  46 CALM      30.35R
BAINBRIDGE     FAIR      46  34  61 CALM      30.36R
MOODY AFB      FAIR      50  24  36 E5        30.33S
VALDOSTA       FAIR      46  25  43 NE5       30.34S WCI  44
MOULTRIE       FAIR      50  25  37 CALM      30.35R
BLAKELY        FAIR      46  30  53 CALM      30.35R
ALBANY         FAIR      45  26  47 CALM      30.36R
TIFTON         FAIR      48  23  36 N5        30.33S
FITZGERALD     FAIR      51  26  37 N3        30.36R
CORDELE        FAIR      46  24  42 CALM      30.35R
AMERICUS       FAIR      46  19  34 CALM      30.34R
HOMERVILLE     FAIR      46  27  46 CALM      30.34S
$$

!GMZ750-755-770-775-201600
...Coastal and Buoy Obs...

STATION/POSITION TIME  TEMP    WIND        PRES    VSBY  WAVE
                       AIR SEA DIR/SP/G                  HT/PER
                 (UTC) (F)     (DEG/KT/KT) (MB)    (MI)  (FT/S)
KEATON BEACH     1500   51      30/  6/  8 1026.8R
CEDAR KEY        1500   49      60/  5/  5 1027.1R
C TOWER          1500   54      50/ 11/ 12 1027.6R
APALACHICOLA BUO NOT AVBL
PANAMA CITY BUOY 1450   61 69   90/  8/ 10 1026.0R         1
MOBILE BUOY      1500   64 68  100/ 12/ 16 1025.6
ORANGE BCH AL BU NOT AVBL
$$




USA.gov is the U.S. government's official web portal to all federal, state and local government web resources and services.